User: anonymous   Login
Location: Caltech
(34.1382°N, 118.1253°W)
Time: 01:28:59
(UTC-08:00)
Language:

SO-50 - Orbit

View from above orbital plane
View from above orbital plane
View from above satellite
View from above satellite

Ground track
Ground track

The orbit data is extracted from the following two-line orbital elements,

1 27607U 02058C   18049.52941695 +.00000016 +00000-0 +23025-4 0  9993
2 27607 064.5549 092.7200 0051054 356.8447 003.2325 14.75420505815326
Epoch (UTC): 18 February 2018 12:42:21
Eccentricity: 0.0051054
inclination: 64.5549°
perigee height: 608 km
apogee height: 679 km
right ascension of ascending node: 92.7200°
argument of perigee: 356.8447°
revolutions per day: 14.75420505
mean anomaly at epoch: 3.2325°
orbit number at epoch: 81532

The dashed part of the orbit path shows where the satellite is in the earth's shadow,  

DLR